Flag Weather past 2 weeks in Arequipa, Arequipa, Peru

Now
50 °F

Clear.


Feels Like: 48 °F
Forecast: 50 / 73 °F
Wind: 5 mph from North

Location: Arequipa Airport

Current Time: Nov 29, 2014 at 2:38:30 AM

Latest Report: Nov 29, 2014 at 2:00 AM


Visibility: 10 mi

Pressure: 30.24 "Hg

Humidity: 50%

Dew point: 32 °F

Location of ArequipaLocation

Historic Weather in Arequipa — Graph

°F

Arequipa temperature yesterday

Maximum temperature yesterday: 72 °F (at 1:00 PM)
Minimum temperature yesterday: 46 °F (at 4:00 AM)
Average temperature yesterday: 59 °F

Past Weeks' High & Low Weather Summary

 TemperatureHumidityPressure
High72 °F (Nov 18, 2:00 PM)87% (Nov 22, 3:00 AM)30.39 "Hg (Nov 22, 3:00 AM)
Low45 °F (Nov 15, 1:00 AM)8% (Nov 26, 10:00 AM)30.18 "Hg (Nov 28, 3:00 PM)
Average59 °F33%30.30 "Hg
* Reported Nov 14 1:00 AM — Nov 29 1:00 AM, Arequipa, Weather by CustomWeather, © 2014

Note: Actual official high and low records may vary slightly from our data, if they occured in-between our weather recording intervals... More about our weather records

Advertising

Arequipa weather history for previous 24 hours

 ConditionsComfort  
Time TempWeatherWind HumidityBarometerVisibility
1:00 AM
Nov 29
52 °FClear.3 mph47%30.24 "Hg10 mi
12:00 AM54 °FClear.3 mph47%30.27 "Hg10 mi
11:00 PM
Nov 28
55 °FClear.3 mph47%30.30 "Hg10 mi
10:00 PM55 °FClear.3 mph51%30.30 "Hg10 mi
9:00 PM57 °FClear.No wind48%30.27 "Hg10 mi
8:00 PM57 °FClear.No wind51%30.27 "Hg10 mi
7:00 PM57 °FClear.6 mph48%30.24 "Hg10 mi
6:00 PM61 °FSunny.7 mph34%30.21 "Hg10 mi
5:00 PM63 °FSunny.13 mph32%30.21 "Hg10 mi
4:00 PM66 °FSunny.13 mph28%30.18 "Hg10 mi
3:00 PM70 °FPassing clouds.17 mph21%30.18 "HgN/A
2:00 PM72 °FPassing clouds.14 mph19%30.21 "HgN/A
1:00 PM72 °FPassing clouds.13 mph17%30.21 "HgN/A
12:00 PM70 °FPassing clouds.13 mph17%30.21 "HgN/A
11:00 AM70 °FPassing clouds.10 mph21%30.21 "HgN/A
10:00 AM66 °FSunny.8 mph24%30.24 "Hg10 mi
9:00 AM64 °FSunny.6 mph26%30.24 "Hg10 mi
8:00 AM61 °FPassing clouds.6 mph29%30.24 "HgN/A
7:00 AM59 °FPassing clouds.3 mph31%30.21 "HgN/A
6:00 AM50 °FSunny.7 mph37%30.21 "Hg10 mi
5:00 AM48 °FClear.6 mph43%30.21 "Hg10 mi
4:00 AM46 °FClear.3 mph50%30.21 "Hg10 mi
3:00 AM48 °FClear.3 mph46%30.21 "Hg10 mi
2:00 AM48 °FClear.3 mph43%30.21 "Hg10 mi
Weather by CustomWeather, © 2014

See weather overviewHow to use our weather pages